Wind_Speed
6 5 5 4 4 2 1 0 1 1 2 1 0 1 1 1 2 2 3 3 3 4 5 5 6 7 7 8 8 9 9 9 9 10 10 10 10 10 10 9 8 7 6 6 6 6 5 5 6
7 6 5 5 4 3 2 1 1 1 0 1 0 1 0 0 2 2 2 2 2 3 4 5 6 7 7 8 8 9 9 9 9 10 9 10 10 10 10 9 9 8 7 6 5 5 5 5 6
9 8 7 6 5 4 3 3 2 2 1 0 1 0 0 1 1 1 2 2 3 3 5 5 6 7 7 7 8 8 8 8 9 9 9 10 10 10 10 10 9 8 7 6 5 5 6 6 6
10 9 8 7 6 5 5 4 4 3 2 1 1 1 1 1 0 1 1 1 2 3 4 5 5 6 7 7 8 8 8 8 9 9 10 10 10 10 10 10 10 9 8 7 6 5 6 6 7
11 11 10 9 8 7 6 6 5 5 4 3 2 2 2 1 0 0 1 2 2 3 4 5 6 6 6 7 7 7 8 9 9 9 9 10 10 10 10 11 10 9 8 7 6 5 6 6 7
12 11 11 10 8 8 8 7 7 6 6 4 3 3 2 1 0 0 1 2 2 3 4 5 5 6 6 7 7 8 8 9 9 9 10 10 11 11 11 11 10 9 8 7 6 5 5 5 7
13 12 12 10 10 9 9 8 7 7 7 5 4 4 3 2 1 1 1 1 1 3 4 4 5 6 6 7 7 8 9 9 9 10 10 11 11 11 11 11 10 9 8 6 5 4 4 5 6
13 13 12 11 10 10 9 8 8 8 7 6 6 5 5 3 2 2 1 0 1 3 4 5 5 5 6 7 8 8 9 10 10 11 11 11 11 11 11 11 10 9 8 6 5 4 4 5 5
13 13 13 12 12 11 10 9 8 8 8 7 6 6 5 4 3 2 2 1 1 2 3 3 4 5 6 7 8 8 9 10 11 11 11 11 11 12 11 11 10 9 8 7 5 4 3 4 5
14 13 13 13 12 12 12 11 9 9 8 8 7 6 6 5 4 4 3 2 0 1 2 3 4 5 6 7 8 9 10 11 11 12 12 12 12 12 12 12 11 10 8 7 5 4 2 3 4
14 14 14 14 13 12 12 12 10 9 9 9 8 8 7 6 5 5 4 2 1 1 2 3 3 4 5 6 7 8 10 11 12 13 13 13 13 12 12 12 11 10 9 7 5 3 1 1 3
14 14 13 13 12 11 11 11 11 10 9 9 9 9 8 7 6 5 4 2 2 1 1 2 3 4 5 6 7 8 9 10 12 13 13 14 14 13 13 13 12 11 9 8 6 3 2 1 2
15 14 14 13 12 11 11 11 11 11 10 10 10 10 9 7 6 5 5 3 2 1 1 1 3 3 4 5 7 8 9 11 12 13 14 14 15 14 14 13 13 12 10 9 7 5 3 3 3
15 15 14 13 13 12 12 11 11 11 11 11 11 11 9 7 7 5 5 4 3 2 2 1 2 3 4 5 6 8 9 11 12 12 14 15 15 15 15 14 14 13 11 10 8 7 6 5 4
15 15 15 14 13 13 13 12 12 12 12 12 12 12 10 8 8 7 6 5 4 3 2 2 2 3 3 4 6 7 8 10 11 12 13 14 15 15 15 15 15 14 13 12 10 9 8 7 6
15 15 15 15 14 14 13 12 12 12 12 11 12 12 11 10 9 8 7 6 4 4 3 3 3 2 3 4 5 6 8 9 11 12 13 14 15 15 16 16 15 15 14 13 11 10 10 9 8
15 15 15 15 14 14 14 14 13 12 12 12 12 11 11 10 10 9 8 7 5 5 5 4 3 2 2 3 4 5 7 9 10 11 12 14 15 15 15 16 16 15 14 13 12 11 10 9 9
15 14 14 15 15 15 15 15 14 12 12 12 13 12 11 10 11 10 9 8 7 6 5 4 4 3 2 3 4 5 6 8 9 11 12 13 14 15 15 15 16 16 15 14 13 12 11 11 10
14 14 13 14 14 14 14 15 14 13 12 12 12 12 12 12 12 11 10 8 7 6 5 5 4 3 2 2 3 4 5 7 8 10 11 12 13 14 15 15 15 15 15 14 13 13 12 12 11
14 13 13 14 15 14 15 15 14 14 13 13 12 12 12 13 12 11 10 9 8 7 6 5 5 3 3 2 3 3 4 6 7 9 10 11 12 12 13 14 14 15 14 14 13 13 13 12 11
13 13 13 14 14 15 15 15 14 14 13 13 13 13 13 14 13 11 10 9 9 8 7 6 6 4 3 3 2 2 3 5 6 8 9 10 10 11 12 13 14 14 14 13 12 12 11 11 10
13 13 13 13 14 14 16 16 15 14 13 12 12 13 13 13 13 11 10 9 9 9 8 7 6 5 4 3 2 2 2 3 5 6 7 8 9 10 11 12 12 13 13 12 12 11 11 10 10
12 13 13 13 13 14 15 16 15 14 13 13 13 13 13 13 13 12 11 10 9 9 8 8 7 5 4 3 2 1 1 2 3 4 6 7 8 8 9 10 11 12 12 11 11 11 10 10 9
12 13 12 11 12 13 14 16 15 13 13 13 14 13 12 12 12 12 12 11 10 10 9 9 8 7 5 4 3 2 1 1 2 3 4 5 6 7 7 8 10 10 10 10 10 10 10 9 8
12 12 13 12 12 12 13 13 12 13 13 13 13 13 13 13 13 13 12 12 11 10 10 9 9 8 6 5 4 3 2 1 0 1 3 4 5 5 6 7 8 9 9 9 9 9 10 9 8
12 12 12 13 13 12 12 12 11 12 13 13 13 14 13 13 13 14 14 13 12 11 10 10 9 8 7 6 5 4 3 2 1 0 1 2 3 4 4 5 6 7 8 8 9 9 9 8 8
11 11 12 12 12 12 11 11 11 12 12 13 13 14 13 13 13 14 14 13 13 12 12 11 10 9 8 7 6 4 4 3 2 1 0 1 2 3 3 4 5 6 7 7 7 8 8 8 8
11 11 12 12 12 11 11 10 10 11 12 12 12 13 13 14 14 14 14 14 14 14 13 12 11 10 9 8 7 6 5 4 4 3 2 1 2 2 3 3 4 5 5 6 6 7 7 7 7
11 12 12 12 12 11 11 11 10 11 11 12 13 14 14 14 14 15 15 15 14 14 13 13 12 11 10 9 8 7 6 6 6 5 4 3 3 3 3 4 4 5 5 5 6 6 6 6 6
11 12 12 12 11 11 11 10 10 10 11 12 13 14 15 15 15 15 16 15 15 14 14 13 13 12 11 10 9 8 8 7 7 7 6 5 5 5 5 5 5 5 6 6 6 6 6 6 6
Wind_Direction
228 231 232 233 234 243 240 246 23 11 359 29 66 311 11 60 62 60 53 56 52 37 26 16 9 7 5 4 4 6 3 358 1 0 357 354 351 348 345 342 339 333 323 310 298 287 273 257 244
233 236 241 241 241 250 246 252 271 282 6 76 239 285 266 85 67 57 42 47 43 30 15 4 5 7 7 9 8 5 4 1 0 1 358 354 350 347 345 343 340 332 322 309 296 281 265 254 244
237 238 245 252 249 250 243 248 251 255 233 167 180 229 177 118 89 57 34 33 26 18 8 2 6 6 7 10 9 6 7 6 3 1 357 354 351 348 345 342 339 334 326 317 302 280 264 254 246
238 240 245 250 249 247 247 250 251 256 240 223 220 236 179 127 98 17 10 15 20 13 8 6 10 10 12 12 11 10 11 8 5 360 357 356 354 350 345 341 338 333 327 319 306 287 268 255 246
240 243 246 246 244 246 246 250 252 247 229 223 227 223 180 141 353 328 314 319 352 5 11 14 16 18 17 16 14 13 11 10 7 2 1 359 356 351 347 343 338 332 324 316 302 288 271 252 239
241 244 246 246 244 244 246 250 252 247 230 221 220 208 201 203 294 354 335 339 347 6 20 18 19 23 22 18 18 16 13 12 11 7 4 1 357 353 350 347 342 335 327 317 305 290 272 253 237
240 241 244 245 245 245 248 250 249 239 225 221 216 203 208 221 220 242 282 323 6 21 28 29 22 22 22 24 25 21 16 15 12 7 5 2 358 357 354 352 348 343 338 329 313 295 269 252 239
241 240 241 243 246 245 245 245 243 236 227 221 215 209 207 214 206 218 228 227 45 36 27 24 24 31 30 30 30 27 22 18 14 8 6 4 1 360 358 357 354 349 345 337 322 302 269 249 237
243 241 239 240 244 245 243 246 246 234 222 217 213 209 212 210 202 193 190 165 69 32 22 28 35 40 37 36 36 31 26 22 20 15 11 9 6 3 2 1 358 356 350 343 334 317 282 253 236
245 243 240 240 242 242 241 244 246 232 222 218 213 207 213 209 203 200 199 178 130 18 30 38 45 46 45 43 39 34 29 26 24 21 16 12 8 6 4 4 4 2 358 352 345 335 297 252 230
244 242 241 241 240 237 241 242 236 229 222 221 215 211 208 206 208 207 199 198 231 353 33 39 47 52 49 45 41 37 34 30 26 22 19 15 13 11 11 11 9 8 7 3 359 360 358 216 208
242 240 240 241 239 235 237 235 233 227 223 215 212 208 204 206 207 208 201 208 226 270 40 58 71 63 52 47 45 41 37 33 28 22 21 20 19 19 19 17 15 15 16 15 15 26 53 111 160
241 240 238 233 232 232 233 232 232 225 219 211 205 202 202 203 205 205 204 215 223 212 130 94 88 72 58 52 48 43 38 33 28 26 26 26 27 26 24 20 21 23 26 29 34 48 64 95 136
241 239 237 229 227 228 227 226 226 220 215 206 201 199 200 202 210 213 212 215 209 195 175 130 101 78 62 53 48 44 38 34 30 28 28 30 30 29 27 28 29 32 34 39 46 60 68 84 115
238 238 234 226 221 221 222 220 221 218 211 209 204 201 203 206 208 212 215 217 215 207 189 136 116 94 71 57 53 49 41 36 33 31 31 33 33 32 31 33 35 37 41 45 52 64 69 81 98
238 237 234 227 222 220 217 214 214 214 208 206 205 203 206 205 206 209 213 215 211 208 183 153 134 106 75 65 61 54 44 39 36 34 35 34 35 35 36 38 40 42 46 50 55 63 70 78 88
240 237 232 229 226 220 216 217 213 217 212 207 202 201 205 203 207 210 212 210 203 191 178 162 144 123 86 70 66 61 48 41 39 38 36 36 38 39 40 41 42 45 49 51 56 64 69 74 84
237 236 229 225 221 218 218 221 218 216 215 210 209 206 207 207 206 205 201 199 198 188 181 168 156 140 101 79 72 64 54 47 43 41 39 39 41 42 43 43 44 46 49 52 56 62 66 72 80
231 231 227 221 220 220 219 220 220 217 214 209 210 210 210 211 208 200 197 196 194 190 184 176 168 153 126 96 82 68 61 52 45 43 41 43 43 43 42 43 46 47 50 53 56 61 65 70 78
226 228 226 221 218 220 219 218 218 218 215 213 213 214 211 209 205 201 200 200 195 193 190 182 176 166 153 124 101 82 68 55 46 43 45 44 43 42 43 45 46 48 51 54 57 61 64 68 75
226 228 225 221 220 220 217 216 215 215 216 217 217 216 215 212 209 204 202 205 202 196 192 187 182 173 163 148 128 101 77 59 49 47 47 46 44 44 46 47 47 48 51 54 57 60 60 62 67
224 223 221 216 218 218 217 217 215 217 215 218 221 218 213 208 209 205 203 203 199 196 195 191 187 180 170 162 147 126 84 62 56 51 49 48 46 47 47 48 48 48 48 52 54 56 56 56 64
221 219 219 220 219 218 219 219 215 216 217 218 220 221 216 209 205 204 205 203 201 201 202 195 193 189 182 182 182 173 122 77 61 55 53 51 49 47 48 47 47 47 48 50 52 52 51 56 62
218 218 220 224 224 222 221 222 215 215 216 217 217 214 213 210 208 207 203 206 204 204 204 201 201 200 198 198 198 192 171 114 69 58 51 48 47 46 47 44 43 44 45 46 47 48 48 52 57
212 216 223 225 224 225 222 219 212 216 217 216 216 213 212 213 215 209 204 206 207 205 205 202 203 205 205 203 200 202 200 193 112 55 44 41 43 45 45 42 40 40 40 38 39 40 42 49 54
215 219 225 228 227 229 225 219 211 215 216 218 217 213 213 213 213 210 206 209 209 206 205 204 204 206 207 205 203 211 216 216 217 225 36 33 34 34 35 34 33 34 34 34 34 35 37 43 46
216 221 224 228 229 229 224 220 215 215 217 219 219 216 215 215 216 213 211 213 212 209 207 208 209 210 212 212 214 217 218 220 226 232 304 1 8 13 13 15 18 21 22 23 27 29 33 37 38
224 227 227 231 228 227 223 221 218 220 220 221 218 214 214 217 218 217 217 217 215 212 210 211 211 213 218 219 221 225 225 227 231 235 248 295 325 341 345 350 358 0 2 7 12 17 23 23 24
226 230 230 231 232 225 219 217 219 222 225 221 219 218 218 218 219 218 217 219 220 217 216 216 214 218 221 225 226 226 231 236 238 243 249 266 285 296 308 317 326 334 337 341 347 357 4 4 6
232 234 230 230 227 224 221 219 219 222 223 221 221 222 222 222 221 219 218 218 219 217 217 216 218 221 225 226 224 228 235 241 245 248 251 261 273 282 293 300 305 311 315 318 322 328 335 339 340
Height
5881 5882 5883 5885 5886 5886 5886 5886 5886 5886 5887 5887 5887 5887 5888 5888 5889 5891 5889 5888 5887 5887 5887 5886 5885 5884 5883 5882 5881 5880 5879 5878 5876 5875 5874 5873 5872 5871 5870 5869 5868 5868 5867 5867 5867 5867 5868 5868 5869
5881 5882 5884 5885 5885 5885 5886 5886 5886 5886 5887 5887 5887 5887 5887 5888 5888 5889 5888 5888 5888 5888 5887 5886 5885 5885 5884 5883 5882 5880 5879 5878 5877 5875 5874 5873 5871 5870 5869 5868 5867 5867 5866 5866 5866 5866 5866 5867 5868
5880 5882 5884 5884 5885 5885 5886 5886 5886 5886 5886 5887 5887 5887 5887 5888 5888 5888 5888 5888 5888 5888 5887 5887 5886 5885 5884 5883 5882 5881 5879 5878 5877 5876 5874 5873 5871 5870 5868 5867 5866 5866 5865 5865 5864 5865 5865 5865 5866
5880 5882 5883 5884 5884 5884 5885 5885 5885 5886 5886 5886 5887 5887 5887 5888 5888 5888 5888 5888 5888 5888 5888 5887 5886 5885 5884 5883 5882 5881 5880 5878 5877 5876 5874 5873 5871 5869 5868 5867 5865 5864 5864 5863 5863 5863 5863 5864 5865
5878 5880 5882 5882 5883 5883 5884 5885 5885 5886 5886 5886 5887 5887 5887 5888 5888 5888 5888 5889 5889 5888 5888 5887 5886 5885 5884 5883 5882 5881 5880 5878 5877 5875 5874 5872 5870 5869 5867 5866 5864 5863 5862 5862 5861 5861 5862 5862 5863
5877 5879 5880 5881 5881 5882 5883 5883 5884 5885 5885 5886 5886 5887 5887 5888 5888 5888 5889 5889 5889 5889 5888 5888 5887 5886 5885 5884 5882 5881 5880 5879 5877 5875 5874 5872 5870 5868 5866 5865 5863 5862 5861 5860 5860 5860 5860 5861 5861
5876 5877 5878 5879 5880 5881 5882 5882 5883 5883 5884 5885 5886 5886 5887 5887 5888 5888 5889 5889 5889 5889 5888 5888 5887 5886 5885 5884 5883 5882 5881 5879 5877 5875 5873 5872 5870 5867 5866 5864 5862 5861 5859 5858 5858 5858 5858 5859 5860
5873 5875 5876 5877 5878 5879 5881 5881 5881 5882 5883 5884 5885 5886 5887 5888 5888 5888 5889 5889 5889 5889 5889 5888 5888 5887 5886 5885 5883 5882 5881 5879 5877 5875 5873 5871 5869 5867 5865 5863 5861 5859 5858 5857 5856 5856 5856 5857 5858
5871 5874 5873 5875 5876 5878 5879 5880 5881 5881 5882 5883 5884 5885 5886 5887 5888 5888 5889 5889 5889 5889 5889 5889 5888 5887 5887 5885 5884 5883 5881 5879 5877 5875 5873 5871 5869 5866 5864 5862 5860 5859 5857 5856 5855 5855 5855 5855 5856
5869 5870 5871 5873 5874 5875 5876 5878 5879 5880 5881 5882 5883 5884 5885 5886 5887 5888 5889 5889 5889 5889 5889 5889 5889 5888 5887 5886 5885 5884 5882 5880 5878 5876 5873 5871 5868 5866 5864 5862 5860 5858 5856 5855 5854 5853 5853 5854 5854
5866 5867 5869 5870 5871 5873 5874 5876 5877 5879 5880 5881 5882 5884 5884 5886 5887 5888 5888 5889 5889 5889 5889 5889 5889 5888 5888 5887 5886 5884 5882 5881 5879 5876 5874 5871 5869 5866 5864 5862 5859 5857 5856 5854 5853 5852 5852 5852 5853
5864 5865 5867 5868 5869 5871 5873 5874 5876 5877 5879 5880 5881 5882 5884 5885 5886 5887 5888 5889 5889 5889 5889 5889 5889 5889 5888 5887 5886 5885 5883 5882 5880 5877 5875 5872 5869 5866 5864 5862 5860 5857 5856 5854 5853 5852 5852 5852 5853
5861 5863 5864 5866 5867 5869 5871 5873 5874 5875 5877 5878 5880 5882 5883 5884 5885 5886 5887 5888 5889 5889 5890 5890 5890 5889 5889 5888 5887 5886 5884 5882 5880 5878 5876 5873 5870 5868 5865 5863 5860 5858 5856 5854 5853 5852 5852 5852 5852
5859 5860 5862 5863 5865 5867 5869 5871 5873 5874 5876 5877 5879 5881 5882 5883 5884 5886 5887 5888 5889 5889 5890 5890 5890 5890 5889 5888 5887 5886 5885 5883 5881 5879 5877 5874 5871 5869 5866 5864 5861 5859 5857 5855 5853 5853 5852 5852 5853
5856 5858 5860 5861 5863 5865 5868 5869 5871 5872 5874 5876 5878 5880 5881 5883 5884 5885 5886 5888 5888 5889 5889 5890 5890 5890 5889 5889 5888 5887 5886 5884 5882 5880 5878 5875 5873 5870 5868 5865 5862 5860 5858 5856 5855 5854 5853 5853 5854
5853 5856 5858 5859 5861 5863 5867 5868 5869 5870 5872 5874 5876 5878 5880 5882 5883 5884 5886 5887 5888 5888 5889 5889 5890 5890 5890 5889 5889 5888 5887 5885 5883 5881 5879 5877 5874 5872 5869 5867 5864 5862 5860 5858 5857 5856 5855 5855 5855
5851 5853 5855 5857 5859 5861 5864 5866 5868 5869 5871 5873 5875 5877 5879 5881 5883 5884 5885 5886 5887 5888 5889 5889 5890 5890 5890 5890 5889 5888 5888 5886 5885 5883 5880 5878 5876 5873 5871 5868 5866 5864 5862 5860 5859 5858 5857 5856 5856
5849 5850 5852 5855 5857 5860 5862 5864 5866 5868 5870 5872 5874 5876 5878 5879 5881 5883 5884 5886 5887 5888 5888 5889 5890 5890 5890 5890 5890 5889 5888 5887 5886 5884 5882 5880 5877 5875 5873 5870 5868 5866 5864 5862 5861 5860 5859 5858 5858
5846 5848 5851 5853 5855 5858 5860 5862 5864 5867 5869 5871 5873 5874 5876 5878 5880 5881 5883 5885 5886 5887 5888 5889 5889 5890 5890 5890 5890 5889 5889 5888 5887 5885 5883 5881 5879 5877 5875 5873 5870 5868 5867 5865 5863 5862 5861 5861 5860
5844 5847 5849 5851 5853 5856 5858 5860 5863 5865 5867 5869 5871 5873 5875 5877 5879 5880 5882 5884 5885 5886 5887 5888 5889 5890 5890 5890 5890 5890 5889 5889 5887 5886 5884 5883 5881 5879 5877 5875 5873 5871 5869 5867 5866 5865 5864 5863 5863
5843 5845 5847 5849 5852 5854 5856 5859 5861 5864 5865 5868 5870 5871 5873 5875 5877 5879 5880 5882 5884 5885 5887 5887 5889 5889 5890 5890 5890 5890 5890 5889 5888 5887 5885 5884 5883 5881 5879 5877 5875 5874 5872 5870 5869 5868 5866 5865 5864
5842 5844 5846 5848 5850 5852 5855 5857 5860 5862 5864 5866 5868 5870 5872 5873 5875 5877 5879 5881 5883 5884 5885 5887 5888 5889 5889 5890 5890 5890 5890 5889 5889 5888 5887 5885 5884 5883 5881 5879 5878 5876 5874 5872 5871 5870 5868 5867 5866
5840 5842 5844 5846 5848 5851 5853 5855 5859 5860 5862 5865 5867 5868 5870 5872 5874 5876 5878 5880 5881 5883 5884 5886 5887 5888 5889 5890 5890 5890 5890 5890 5889 5889 5888 5887 5886 5884 5883 5881 5880 5878 5876 5875 5873 5872 5870 5868 5867
5839 5841 5843 5844 5846 5849 5851 5854 5857 5858 5861 5863 5864 5866 5868 5870 5872 5874 5876 5878 5880 5882 5883 5885 5886 5887 5888 5889 5889 5890 5890 5890 5890 5889 5888 5888 5887 5886 5884 5883 5882 5880 5878 5877 5875 5874 5872 5870 5869
5838 5841 5842 5843 5845 5848 5850 5852 5856 5857 5858 5860 5863 5865 5867 5869 5871 5873 5875 5877 5879 5880 5882 5883 5885 5886 5887 5888 5889 5889 5890 5890 5890 5889 5889 5888 5887 5887 5886 5884 5883 5882 5880 5879 5877 5876 5874 5872 5870
5836 5839 5842 5843 5845 5846 5848 5850 5854 5855 5856 5858 5861 5863 5865 5867 5870 5872 5874 5875 5877 5879 5881 5883 5884 5885 5886 5887 5888 5889 5889 5889 5889 5889 5889 5888 5888 5887 5886 5885 5884 5883 5882 5880 5879 5877 5876 5874 5872
5836 5838 5840 5842 5843 5845 5847 5850 5852 5853 5855 5857 5859 5861 5864 5866 5868 5870 5872 5874 5876 5878 5879 5881 5883 5884 5885 5886 5887 5888 5888 5889 5889 5889 5889 5889 5888 5887 5887 5886 5885 5884 5883 5882 5880 5879 5877 5876 5874
5835 5837 5839 5840 5842 5844 5846 5848 5850 5852 5854 5855 5857 5859 5862 5864 5866 5868 5870 5872 5874 5876 5877 5879 5881 5883 5884 5885 5886 5887 5887 5888 5888 5888 5888 5888 5888 5887 5887 5886 5885 5884 5883 5882 5881 5880 5879 5877 5876
5834 5836 5837 5838 5840 5842 5844 5849 5849 5850 5852 5853 5855 5857 5859 5862 5864 5866 5868 5870 5872 5873 5875 5877 5879 5881 5882 5883 5884 5885 5886 5887 5887 5887 5887 5887 5887 5887 5886 5886 5885 5884 5883 5882 5881 5880 5879 5878 5877
5832 5833 5835 5837 5839 5840 5843 5848 5847 5848 5850 5851 5853 5855 5857 5859 5861 5863 5865 5867 5869 5871 5873 5875 5877 5878 5880 5881 5882 5883 5884 5885 5885 5886 5886 5886 5886 5886 5885 5885 5884 5883 5883 5882 5881 5880 5879 5878 5877